COSMOS 1758

Satellite information

Favourite Embed

Satellite Type and Status

PAYLOADIN ORBIT

Key statistics

Satellite COSMOS 1758 at a glance.

Uptime

14333

Days in orbit

Revolutions

≈ 15.2

Per day

Orbit

LEO

Low Earth Orbit

Inclination

82.5

Latest

Satellite identification and parameters

Extended collection of information and parameters for COSMOS 1758.

Object identification

Identified? True

Debris? False

Object name: COSMOS 1758

International designator: 1986-046A

Object number (NORAD): 16791

Object ID (CCSDS): 16791

Country: COMMONWEALTH OF INDEPENDENT STATES (CIS)

Current information (Y/N): Y

RCS size: LARGE

Orbital parameters

Period: 94.591 minutes

Inclination: 82.4641 deg

SMA: 6876.923 km

Apoapsis: 508.625 km

Periapsis: 488.952 km

RAAN: 327.6387 deg

Eccentricy: 0.00143038

Argument of periapsis: 252.1661 deg

Mean anomaly: 107.8015 deg

Mean motion: 15.22339447 rev/day

Mean motion (dot): 0.00008741 rev/day2

B* drag term: 0.0003766711 1/REarth

Two-line elements (TLE)

Creation date: Sept. 8, 2025, 3:16 a.m.

Reference frame: TEME

Reference center: EARTH

Epoch: Sept. 7, 2025, 2:58 p.m. UTC

TLE line 0: 0 COSMOS 1758

TLE line 1: 1 16791U 86046A 25250.62380733 .00008741 00000-0 37667-3 0 9996

TLE line 2: 2 16791 82.4641 327.6387 0014304 252.1661 107.8015 15.22339447138185

Live tracking on map

Real-time ground track for satellite COSMOS 1758.

In-orbit conjunctions

A list of the most updated potential collisions computed for object COSMOS 1758.

Target Orbit TCA Probability of collision Miss distance Type
FENGYUN 1C DEB SSO 2024-11-03 04:18:51 0.0001308555 243.0 (m) DEBRIS
COSMOS 374 DEB MEO 2024-06-21 22:30:53 0.0001486012 503.0 (m) DEBRIS

Associated space launch

Tselina-D satellites provided detailed observation of radio sources detected by the smaller Tselina-O satellites as part of the Tselina ELINT system.

COSMOS 1758 was lifted into orbit during the mission ‘Tsiklon-3 | Tselina-D 56’, on board a Tsiklon-3 space rocket.

The launch took place on June 12, 1986, 4:43 a.m. from 32/1.

For more information about the launch, click the button.

Launch to space Tsiklon-3 | Tselina-D 56
Tsiklon-3 | Tselina-D 56

Agency: N/A

Status: Launch Successful

Launch date: June 12, 1986, 4:43 a.m. UTC

Rocket: Tsiklon-3

Launch pad: 32/1

Location: Plesetsk Cosmodrome, Russian Federation

...

Latest news about this satellite

There are no fresh news available about this satellite. Check back as we update our databases every day.


Newsletter sign-up

Weekly statistics, charts and insights to help you stay on top of the space industry.